When you browse on this site, cookies collect data to enhance your experience and personalize the content and advertising you see.
Visit our Privacy Policy to learn more. By continuing to use the site, you agree to this use of cookies and data.
  • En España
  • Lista de países
  • Para 7 días
  • Temperatura del agua
  • El tiempo en el mapa
  • Informadores
  • user-avatar
    Iniciar sesión

    Tiempo cada hora Ondjiwa

    Hoy, 7 Diciembre, Sábado

    Tiempo Temperatura Precipitaciones Viento Presión Humedad
    00:00 +25°C° 0.2 mm 1 mps 665 mmHg 63%
    01:00 +24°C° 0.2 mm 1 mps 665 mmHg 67%
    02:00 +24°C° 0 mm 2 mps 665 mmHg 66%
    03:00 +24°C° 0 mm 2 mps 665 mmHg 65%
    04:00 +24°C° 0 mm 2 mps 665 mmHg 64%
    05:00 +24°C° 0 mm 2 mps 666 mmHg 62%
    06:00 +24°C° 0 mm 3 mps 666 mmHg 61%
    07:00 +24°C° 0 mm 3 mps 666 mmHg 59%
    08:00 +26°C° 0 mm 3 mps 667 mmHg 54%
    09:00 +28°C° 0 mm 2 mps 667 mmHg 49%
    10:00 +30°C° 0 mm 2 mps 667 mmHg 44%
    11:00 +31°C° 0 mm 2 mps 667 mmHg 41%
    12:00 +32°C° 0 mm 2 mps 666 mmHg 37%
    13:00 +34°C° 0 mm 2 mps 666 mmHg 34%
    14:00 +34°C° 0 mm 2 mps 665 mmHg 34%
    15:00 +33°C° 0 mm 3 mps 664 mmHg 34%
    16:00 +33°C° 0 mm 3 mps 664 mmHg 34%
    17:00 +31°C° 0 mm 2 mps 664 mmHg 36%
    18:00 +30°C° 0 mm 2 mps 664 mmHg 38%
    19:00 +29°C° 0 mm 1 mps 664 mmHg 40%
    20:00 +28°C° 0 mm 1 mps 664 mmHg 41%
    21:00 +28°C° 0 mm 2 mps 665 mmHg 43%
    22:00 +27°C° 0 mm 2 mps 665 mmHg 44%
    23:00 +26°C° 0 mm 3 mps 665 mmHg 45%

    Mañana, 8 Diciembre, Domingo

    Tiempo Temperatura Precipitaciones Viento Presión Humedad
    00:00 +26°C° 0 mm 3 mps 665 mmHg 45%
    01:00 +25°C° 0 mm 4 mps 665 mmHg 46%
    02:00 +25°C° 0 mm 4 mps 665 mmHg 48%
    03:00 +24°C° 0 mm 3 mps 665 mmHg 50%
    04:00 +22°C° 0 mm 3 mps 665 mmHg 53%
    05:00 +22°C° 0 mm 3 mps 665 mmHg 52%
    06:00 +24°C° 0 mm 3 mps 666 mmHg 51%
    07:00 +24°C° 0 mm 3 mps 666 mmHg 50%
    08:00 +26°C° 0 mm 3 mps 666 mmHg 43%
    09:00 +28°C° 0 mm 3 mps 666 mmHg 36%
    10:00 +30°C° 0 mm 3 mps 666 mmHg 29%
    11:00 +31°C° 0 mm 3 mps 666 mmHg 28%
    12:00 +33°C° 0 mm 3 mps 666 mmHg 26%
    13:00 +33°C° 0 mm 3 mps 665 mmHg 24%
    14:00 +34°C° 0 mm 3 mps 665 mmHg 24%
    15:00 +34°C° 0 mm 3 mps 664 mmHg 24%
    16:00 +34°C° 0 mm 3 mps 664 mmHg 25%
    17:00 +33°C° 0 mm 3 mps 664 mmHg 28%
    18:00 +30°C° 0 mm 2 mps 664 mmHg 30%
    19:00 +29°C° 0 mm 1 mps 664 mmHg 33%
    20:00 +28°C° 0 mm 2 mps 665 mmHg 34%
    21:00 +27°C° 0 mm 3 mps 665 mmHg 35%
    22:00 +26°C° 0 mm 4 mps 665 mmHg 36%
    23:00 +25°C° 0 mm 4 mps 665 mmHg 39%

    Pasado mañana, 9 Diciembre, Lunes

    Tiempo Temperatura Precipitaciones Viento Presión Humedad
    00:00 +24°C° 0 mm 3 mps 665 mmHg 43%
    01:00 +22°C° 0 mm 3 mps 665 mmHg 46%
    02:00 +21°C° 0 mm 2 mps 665 mmHg 49%
    03:00 +21°C° 0 mm 2 mps 664 mmHg 52%
    04:00 +20°C° 0 mm 2 mps 664 mmHg 55%
    05:00 +21°C° 0 mm 2 mps 665 mmHg 53%
    06:00 +21°C° 0 mm 3 mps 665 mmHg 51%
    07:00 +22°C° 0 mm 3 mps 666 mmHg 50%
    08:00 +25°C° 0 mm 3 mps 666 mmHg 41%
    09:00 +27°C° 0 mm 3 mps 667 mmHg 33%
    10:00 +29°C° 0 mm 3 mps 667 mmHg 25%
    11:00 +30°C° 0 mm 4 mps 667 mmHg 23%
    12:00 +32°C° 0 mm 4 mps 666 mmHg 20%
    13:00 +33°C° 0 mm 4 mps 666 mmHg 18%
    14:00 +34°C° 0 mm 4 mps 665 mmHg 16%
    15:00 +34°C° 0 mm 4 mps 665 mmHg 15%
    16:00 +34°C° 0 mm 5 mps 665 mmHg 13%
    17:00 +32°C° 0 mm 4 mps 664 mmHg 15%
    18:00 +29°C° 0 mm 4 mps 664 mmHg 17%
    19:00 +27°C° 0 mm 3 mps 664 mmHg 19%
    20:00 +26°C° 0 mm 3 mps 665 mmHg 22%
    21:00 +25°C° 0 mm 4 mps 665 mmHg 25%
    22:00 +22°C° 0 mm 4 mps 665 mmHg 28%
    23:00 +22°C° 0 mm 4 mps 665 mmHg 30%

    10 Diciembre, Martes

    Tiempo Temperatura Precipitaciones Viento Presión Humedad
    00:00 +21°C° 0 mm 3 mps 665 mmHg 31%
    01:00 +20°C° 0 mm 3 mps 665 mmHg 33%
    02:00 +20°C° 0 mm 3 mps 665 mmHg 37%
    03:00 +19°C° 0 mm 3 mps 665 mmHg 40%
    04:00 +18°C° 0 mm 2 mps 665 mmHg 43%
    05:00 +19°C° 0 mm 2 mps 665 mmHg 44%
    06:00 +20°C° 0 mm 2 mps 666 mmHg 45%
    07:00 +21°C° 0 mm 2 mps 666 mmHg 46%
    08:00 +25°C° 0 mm 1 mps 667 mmHg 39%
    09:00 +27°C° 0 mm 1 mps 667 mmHg 32%
    10:00 +29°C° 0 mm 1 mps 668 mmHg 25%
    11:00 +30°C° 0 mm 1 mps 667 mmHg 22%
    12:00 +31°C° 0 mm 2 mps 667 mmHg 18%
    13:00 +33°C° 0 mm 3 mps 666 mmHg 15%
    14:00 +33°C° 0 mm 3 mps 666 mmHg 14%
    15:00 +34°C° 0 mm 3 mps 665 mmHg 13%
    16:00 +34°C° 0 mm 3 mps 665 mmHg 11%
    17:00 +31°C° 0 mm 2 mps 665 mmHg 13%
    18:00 +29°C° 0 mm 2 mps 665 mmHg 15%
    19:00 +27°C° 0 mm 1 mps 664 mmHg 17%
    20:00 +26°C° 0 mm 2 mps 665 mmHg 20%
    21:00 +25°C° 0 mm 2 mps 665 mmHg 22%
    22:00 +24°C° 0 mm 2 mps 666 mmHg 25%
    23:00 +22°C° 0 mm 3 mps 666 mmHg 30%

    11 Diciembre, Miércoles

    Tiempo Temperatura Precipitaciones Viento Presión Humedad
    00:00 +22°C° 0 mm 3 mps 666 mmHg 36%
    01:00 +21°C° 0 mm 3 mps 666 mmHg 42%
    02:00 +20°C° 0 mm 3 mps 665 mmHg 45%
    03:00 +19°C° 0 mm 2 mps 665 mmHg 48%
    04:00 +19°C° 0 mm 2 mps 665 mmHg 52%
    05:00 +19°C° 0 mm 2 mps 665 mmHg 49%
    06:00 +20°C° 0 mm 2 mps 666 mmHg 47%
    07:00 +21°C° 0 mm 2 mps 667 mmHg 44%
    08:00 +24°C° 0 mm 2 mps 667 mmHg 38%
    09:00 +26°C° 0 mm 2 mps 667 mmHg 31%
    10:00 +29°C° 0 mm 2 mps 668 mmHg 25%
    11:00 +30°C° 0 mm 2 mps 668 mmHg 22%
    12:00 +32°C° 0 mm 2 mps 667 mmHg 19%
    13:00 +34°C° 0 mm 1 mps 667 mmHg 16%
    14:00 +34°C° 0 mm 1 mps 666 mmHg 16%
    15:00 +34°C° 0 mm 1 mps 666 mmHg 15%
    16:00 +34°C° 0 mm 1 mps 665 mmHg 15%
    17:00 +32°C° 0 mm 2 mps 665 mmHg 17%
    18:00 +30°C° 0 mm 2 mps 665 mmHg 19%
    19:00 +28°C° 0 mm 2 mps 665 mmHg 21%
    20:00 +27°C° 0 mm 2 mps 665 mmHg 22%
    21:00 +27°C° 0 mm 2 mps 666 mmHg 23%
    22:00 +26°C° 0 mm 2 mps 666 mmHg 24%
    23:00 +25°C° 0 mm 2 mps 666 mmHg 29%

    12 Diciembre, Jueves

    Tiempo Temperatura Precipitaciones Viento Presión Humedad
    00:00 +24°C° 0 mm 3 mps 666 mmHg 33%
    01:00 +22°C° 0 mm 3 mps 666 mmHg 38%
    02:00 +21°C° 0 mm 3 mps 666 mmHg 40%
    03:00 +20°C° 0 mm 3 mps 665 mmHg 42%
    04:00 +20°C° 0 mm 2 mps 665 mmHg 44%
    05:00 +20°C° 0 mm 2 mps 666 mmHg 41%
    06:00 +21°C° 0 mm 2 mps 666 mmHg 38%
    07:00 +23°C° 0 mm 2 mps 667 mmHg 34%
    08:00 +25°C° 0 mm 3 mps 667 mmHg 30%
    09:00 +28°C° 0 mm 3 mps 668 mmHg 25%
    10:00 +30°C° 0 mm 3 mps 668 mmHg 20%
    11:00 +33°C° 0 mm 3 mps 668 mmHg 18%
    12:00 +34°C° 0 mm 3 mps 667 mmHg 16%
    13:00 +35°C° 0 mm 3 mps 667 mmHg 15%
    14:00 +36°C° 0 mm 3 mps 666 mmHg 14%
    15:00 +36°C° 0 mm 3 mps 666 mmHg 14%
    16:00 +36°C° 0 mm 2 mps 666 mmHg 14%
    17:00 +34°C° 0 mm 3 mps 665 mmHg 16%
    18:00 +31°C° 0 mm 3 mps 665 mmHg 18%
    19:00 +29°C° 0 mm 3 mps 665 mmHg 19%
    20:00 +29°C° 0 mm 2 mps 665 mmHg 20%
    21:00 +28°C° 0 mm 2 mps 666 mmHg 20%
    22:00 +28°C° 0 mm 1 mps 666 mmHg 20%
    23:00 +27°C° 0 mm 2 mps 666 mmHg 24%
    Mostrar más